Location: Berg
(48.4333°N, 13.9167°E)
Time: 08:59:19
(UTC+00:00)

Cosmos 158 Rocket - Pass Details

Date: 18 September 2020
Orbit: 699 x 793 km, 74.0° (Epoch: 24 October)

Event Time Altitude Azimuth Distance (km) Brightness Sun altitude
Rises 17:31:53 0° 335° (NNW) 3,280 7.8 -4.5°
Reaches altitude 10° 17:34:19 10° 333° (NNW) 2,337 7.0 -4.9°
Maximum altitude 17:39:35 70° 251° (WSW) 814 4.4 -5.7°
Drops below altitude 10° 17:44:42 10° 168° (SSE) 2,261 6.2 -6.6°
Sets 17:47:01 0° 167° (SSE) 3,165 7.0 -6.9°
